Showing default

KORSAT 7, 58463

Orbit data source: Space-Track

KORSAT 7, 58463 is a payload satellite owned by DAPA (KR) in SSO that was launched on Fri, 01 Dec 2023 UTC via an FALCON 9 launch vehicle from the Air Force Western Test Range (AFWTR). Payload-class satellites include a variety of spacecraft equipped with specific instruments for various scientific and technological missions. These include communications satellites like Starlink; space stations such as the ISS; scientific satellites like the Hubble; Earth observation satellites from companies like Planet Labs, Umbra, and HawkEye 360; GPS; miniature CubeSats for education and research; and military/defense satellites.

Loading next visibility...
Identifier
58463, 2023-185B
Orbit
SSO
Last TLE update
7 hours ago
Origin
Manufacturer
KAI
Mission
Operational Defense Imaging
Bus & Motor
CAS500?, Unknown motor
Mass
~800 kg wet, ~750 kg dry
Launch date (UTC)
2023-12-01 (2 years ago)
Launch vehicle
FALCON 9
Launch site
Air Force Western Test Range (AFWTR)
Object type
Payload
Rocket body
Debris
Shape & HBR
Box + 4 Pan, 6 m
Radar Cross Section
11.517 m², Large (>1 m²)

Expand to show TLE details & history

TLE from 7 hours ago
0 KORSAT 7
1 58463U 23185B   25192.19901452  .00002031  00000-0  16242-3 0  9999
2 58463  97.6281 257.5909 0027424  44.3330 316.0083 15.01047598 88135
Epoch: 2025-07-11T04:46Z
TLE epoch observation values (Epoch: 2025-07-11T04:46:34.854Z)
Latitude
-0.00009°
Longitude
-103.40869°
Altitude
553.049 km
Speed
7.593 km/s
True Right ascension
17h 10m 21s
True Declination
0° 00' 00"
Sunlit
Object was in full shadow at epoch
Visualization orbit readout
Latitude
6.90549°
Longitude
77.80873°
Altitude
578.2 km
Speed
7.565 km/s
Apparent Right ascension
07h 55m 04s
Apparent Declination
-23° 43' 19"
Sunlit
Object is in daylight
Visualization observer readout
Local Sidereal Time
00:14:38
Azimuth
94.089° ESE
Elevation
-33.789°
Doppler factor
1
Orbital elements
Apogee altitude
579.694 km
Perigee altitude
541.636 km
Semi-major axis
6,938.802 km
Eccentricity
0.00274
Inclination
97.6281°
RAAN
257.5909°
Arg. of periapsis
44.333°
True anomaly
Unknown
Mean anomaly
316.0083°
Eccentric anomaly
Unknown
Mean motion
3.75506 °/min
Orbital period
95.87 mins
BSTAR
0.00016242
Loading maneuver chart data...
Loading SW <> Apogee altitude chart data...
Loading historical data...
Loading historical data...
Loading historical data...
Loading historical data...
Loading historical data...
Loading historical data...
Loading historical data...

KORSAT 7 Visibility forecast

Observer location: undefined°, undefined°

Span
Click to sort rows by Start time (UTC) header in descending order
Start Az.
Max El. time (UTC)
Max El. Az.
Max El.
End time (UTC)
End Az.
5 mins2025-07-11 16:33:30.900Z47.081° ENE2025-07-11 16:35:30.900Z84.436° E23.616°2025-07-11 16:38:30.900Z146.269° SSE
4 mins2025-07-11 18:09:30.900Z318.464° NNW2025-07-11 18:10:30.900Z298.004° NW20.354°2025-07-11 18:13:30.900Z244.297° WSW
5 mins2025-07-12 04:54:30.900Z202.989° SW2025-07-12 04:56:30.900Z248.044° W30.811°2025-07-12 04:59:30.900Z323.59° NNW
|